Regional Weather Roundup
Issued by NWS Binghamton, NY

Home | Current Version | Previous Version | Text Only | Print | Product List | Glossary On
Versions: 1 2 3 4 5 6 7 8 9 10 11 12 13 14 15 16 17 18 19 20 21 22 23 24 25 26 27 28 29 30 31 32 33 34 35 36 37 38 39 40 41 42 43 44 45 46 47 48 49 50
000
ASUS41 KBGM 250210
RWRBGM
RWRBGM
BINGHAMTON REGIONAL WEATHER ROUNDUP
NATIONAL WEATHER SERVICE BINGHAMTON NY
1000 PM EDT SUN MAY 24 2015

Note: "fair" indicates few or no clouds below 12,000 feet with no
significant weather and/or obstructions to visibility.

* = Station(s) that does not report precipitation, such as rain,
snow, etc, also no thunder or fog.

!NYZ009-015>018-022>025-036-037-044>046-055>057-062-250300
...CENTRAL NEW YORK...

CITY           SKY/WX    TMP DP  RH WIND       PRES   REMARKS
BINGHAMTON     CLOUDY    67  38  34 S5        30.24S
CORTLAND       FAIR      59  50  72 CALM      30.24S
DANSVILLE      CLOUDY    65  52  62 S5        30.21R
ELMIRA         CLOUDY    61  51  70 CALM      30.22R
ITHACA         CLOUDY    59  52  77 E3        30.23S
MONTICELLO     MOCLDY    57  43  58 CALM      30.29R
NORWICH        CLEAR     55  45  67 CALM      30.25R
ONEONTA        CLEAR     63  30  29 CALM      30.26R
PENN YAN       CLOUDY    65  51  60 S6        30.21S
ROME           MOCLDY    61  47  59 CALM      30.20R
SIDNEY         CLEAR     57  46  67 CALM      30.24S
SYRACUSE       MOCLDY    67  44  43 CALM      30.18R
$$

!PAZ038>040-043-044-047-048-072-250300
...NORTHEAST PENNSYLVANIA...

CITY           SKY/WX    TMP DP  RH WIND       PRES   REMARKS
HAZLETON       CLOUDY    68  41  37 CALM      30.32R
SCRANTON       MOCLDY    68  44  42 S3        30.25R
$$
&&
KEY
WCI = WIND CHILL INDEX
VSB = VISIBILITY
HX  = HEAT INDEX
$$


USA.gov is the U.S. government's official web portal to all federal, state and local government web resources and services.